SCP
0 0 0 0 0 0 0 0 0 0 0 0 0 0 0 0 0 0 0 0 0 0 0 0 0 0 0 0 0 0 0 0 0 0 0 0 0 0 0 0 0 0 0
0 0 0 0 0 0 0 0 0 0 0 0 0 0 0 0 0 0 0 0 0 0 0 0 0 0 0 0 0 0 0 0 0 0 0 0 0 0 0 0 0 0 0
0 0 0 0 0 0 0 0 0 0 0 0 0 0 0 0 0 0 0 0 0 0 0 0 0 0 0 0 0 0 0 0 0 0 0 0 0 0 0 0 0 0 0
0 0 0 0 0 0 0 0 0 0 0 0 0 0 0 0 0 0 0 0 0 0 0 0 0 0 0 0 0 0 0 0 0 0 0 0 0 0 0 0 0 0 0
0 0 0 0 0 0 0 0 0 0 0 0 0 0 0 0 0 0 0 0 0 0 0 0 0 0 0 0 0 0 0 0 0 0 0 0 0 0 0 0 0 0 0
0 0 0 0 0 0 0 0 0 0 0 0 0 0 0 0 0 0 0 0 0 0 0 0 0 0 0 0 0 0 0 0 0 0 0 0 0 0 0 0 0 0 0
0 0 0 0 0 0 0 0 0 0 0 0 0 0 0 0 0 0 0 0 0 0 0 0 0 0 0 0 0 0 0 0 0 0 0 0 0 0 0 0 0 0 0
0 0 0 0 0 0 0 0 0 0 0 0 0 0 0 0 0 0 0 0 0 0 0 0 0 0 0 0 0 0 0 0 0 0 0 0 0 0 0 0 0 0 0
0 0 0 0 0 0 0 0 0 0 0 0 0 0 0 0 0 0 0 0 0 0 0 0 0 0 0 0 0 0 0 0 0 0 0 0 0 0 0 0 0 0 0
0 0 0 0 0 0 0 0 0 0 0 0 0 0 0 0 0 0 0 0 0 0 0 0 0 0 0 0 0 0 0 0 0 0 0 0 0 0 0 0 0 0 0
0 0 0 0 0 0 0 0 0 0 0 0 0 0 0 0 0 0 0 0 0 0 0 0 0 0 0 0 0 0 0 0 0 0 0 0 0 0 0 0 0 0 0
0 0 0 0 0 0 0 0 0 0 0 0 0 0 0 0 0 0 0 0 0 0 0 0 0 0 0 0 0 0 0 0 0 0 0 0 0 0 0 0 0 0 0
0 0 0 0 0 0 0 0 0 0 0 0 0 0 0 0 0 0 0 0 0 0 0 0 0 0 0 0 0 0 0 0 0 0 0 0 0 0 0 0 0 0 0
0 0 0 0 0 0 0 0 0 0 0 0 0 0 0 0 0 0 0 0 0 0 0 0 0 0 0 0 0 0 0 0 0 0 0 0 0 0 0 0 0 0 0
0 0 0 0 0 0 0 0 0 0 0 0 0 0 0 0 0 0 0 0 0 0 0 0 0 0 0 0 0 0 0 0 0 0 0 0 0 0 0 0 0 0 0
0 0 0 0 0 0 0 0 0 0 0 0 0 0 0 0 0 0 0 0 0 0 0 0 0 0 0 0 0 0 0 0 0 0 0 0 0 -0 0 0 0 -0 -0
0 0 0 0 0 0 0 0 0 0 0 0 0 0 0 0 0 0 0 0 0 0 0 0 0 0 0 0 0 0 0 0 0 0 0 -0 0 0 -0 0 -0 -0 -0
0 0 0 0 0 0 0 0 0 0 0 0 0 0 0 0 0 0 0 0 0 0 0 0 0 0 0 0 0 0 0 0 0 0 0 0 0 0 0 0 0 -0 -0
0 0 0 0 0 0 0 0 0 0 0 0 0 0 0 0 0 0 0 0 0 0 0 0 0 0 0 0 0 0 0 0 0 0 0 0 0 0 0 0 0 0 0
0 0 0 0 0 0 0 0 0 0 0 0 0 0 0 0 0 0 0 0 0 0 0 0 0 0 0 0 0 0 0 0 0 0 0 0 0 0 0 0 0 0 0
0 0 0 0 0 0 0 0 0 0 0 0 0 0 0 0 0 0 0 0 0 0 0 0 0 0 0 0 0 0 0 0 0 0 0 0 0 0 0 0 -0 -0 0
0 0 0 0 0 0 0 0 0 0 0 0 0 0 0 0 0 0 0 0 0 0 0 0 0 0 0 0 0 0 0 0 0 0 0 0 0 0 0 0 0 -0 -0
0 0 0 0 0 0 0 0 0 0 0 0 0 0 0 0 0 0 0 0 0 0 0 0 0 0 0 0 0 0 0 0 0 0 0 0 0 0 0 0 0 0 0
0 0 0 0 0 0 0 0 0 0 0 0 0 0 0 0 0 0 0 0 0 0 0 0 0 0 0 0 0 0 0 0 0 0 0 0 0 0 0 0 0 0 0
0 0 0 0 0 0 0 0 0 0 0 0 0 0 0 0 0 0 0 0 0 0 0 0 0 0 0 0 0 0 0 0 0 0 0 0 0 0 0 0 0 0 0
0 0 0 0 0 0 0 0 0 0 0 0 0 0 0 0 0 0 0 0 0 0 0 0 0 0 0 0 0 0 0 0 0 0 0 0 0 0 0 0 0 0 0
Wind_Speed_500mb
73 77 78 75 71 70 70 72 70 65 64 59 53 48 43 41 39 38 35 34 33 34 37 42 46 49 50 50 48 43 41 40 57 79 77 82 81 83 77 67 62 69 82
64 66 70 68 68 69 72 73 71 71 66 62 58 53 47 44 42 39 36 35 34 34 37 42 46 49 50 49 46 42 40 40 52 75 85 86 86 85 78 76 73 68 80
54 59 62 64 67 71 71 72 73 73 69 66 63 57 51 46 44 41 39 36 34 34 37 41 46 50 51 48 45 44 41 44 51 67 87 85 86 84 84 79 83 82 78
47 53 58 62 64 66 68 71 74 73 71 69 65 58 53 49 46 43 40 36 34 33 37 40 44 50 53 49 44 43 44 46 55 64 74 80 81 81 79 84 93 78 78
44 51 56 58 60 61 64 69 71 74 73 69 65 61 56 54 49 45 41 37 34 32 35 39 43 48 53 53 44 42 45 47 52 62 68 72 80 81 81 82 80 78 68
49 56 59 61 62 63 65 67 70 74 74 71 69 65 60 56 49 46 42 39 33 32 34 38 42 44 48 50 43 38 43 42 48 55 65 72 73 74 77 75 71 70 63
39 47 61 72 74 73 71 68 69 76 76 74 73 68 62 56 52 48 43 40 35 33 34 38 41 44 47 47 43 37 37 34 32 48 59 64 69 70 71 71 62 56 56
47 48 53 65 83 87 80 73 71 76 78 77 76 69 63 57 53 49 46 42 38 33 34 37 39 43 47 49 47 39 37 32 33 43 51 59 62 62 60 56 53 49 43
41 47 50 51 65 85 90 81 79 80 81 80 77 68 66 59 55 52 48 45 38 33 34 36 38 41 44 47 45 43 38 32 30 39 47 54 54 52 52 47 38 38 37
46 47 48 56 59 70 83 90 87 84 82 79 75 70 66 58 55 53 50 46 41 33 34 32 37 40 42 44 43 43 44 38 32 30 37 42 42 44 42 40 37 35 33
50 49 49 52 58 65 67 82 86 85 82 80 75 70 66 60 58 56 51 47 39 36 32 30 34 38 38 41 40 39 40 42 28 36 39 38 37 35 33 35 35 30 26
54 50 44 45 43 46 55 68 80 82 80 80 75 72 68 62 59 56 52 46 42 38 32 31 32 34 36 37 37 37 34 33 29 31 29 29 30 28 31 38 37 32 25
53 53 46 39 37 33 44 58 70 76 81 80 76 76 69 64 59 56 53 48 46 39 34 32 31 32 32 31 33 33 31 28 25 20 22 24 27 30 33 34 34 30 20
55 51 47 43 33 30 35 46 58 71 78 78 76 73 67 63 59 56 55 53 49 43 37 34 32 31 30 27 29 27 25 25 22 16 20 21 24 30 30 29 24 18 15
54 49 45 39 35 28 29 41 53 61 68 70 72 68 66 62 55 52 53 51 46 42 41 38 33 30 28 26 23 24 19 17 17 13 14 17 21 28 28 28 26 22 30
54 55 45 40 35 30 26 32 45 53 59 65 66 60 54 49 47 48 47 47 47 50 48 42 35 32 28 25 20 18 14 9 10 9 7 12 16 20 21 20 23 32 41
54 50 53 45 36 34 30 28 40 46 51 61 65 61 57 52 48 46 49 52 53 54 54 47 40 34 30 26 20 14 12 4 3 5 2 6 7 12 14 14 21 27 36
52 50 47 48 43 39 35 35 36 44 47 56 59 58 59 57 54 50 49 52 60 62 58 53 44 36 32 27 22 16 13 11 5 3 3 4 7 8 12 10 19 27 32
51 50 55 52 44 41 42 39 43 44 42 50 53 53 52 48 53 57 53 67 70 66 60 54 46 41 35 30 25 19 13 17 14 12 10 9 11 12 10 9 14 18 21
54 49 53 57 51 41 45 42 45 48 44 47 49 52 45 42 54 59 65 75 76 76 66 55 49 45 41 35 29 24 19 18 20 18 16 14 18 19 15 10 13 16 20
58 57 53 55 56 46 46 47 42 52 49 54 53 47 46 56 60 66 68 74 77 80 71 64 58 54 48 40 36 29 24 23 23 26 22 21 21 21 20 18 19 22 21
63 60 57 55 56 49 48 48 53 51 52 53 54 60 57 56 60 66 70 72 69 74 72 67 62 58 53 45 38 31 30 28 27 30 31 28 28 25 20 19 27 29 27
67 65 62 58 58 52 52 52 52 57 57 54 52 58 61 59 63 69 68 64 68 68 65 66 66 64 60 52 45 37 34 29 26 30 33 34 33 30 26 26 32 35 34
66 66 64 64 61 55 50 50 47 51 52 54 52 54 61 61 62 66 68 63 66 59 61 59 67 69 66 59 52 42 37 37 36 35 36 36 37 37 36 36 36 38 38
64 65 65 65 63 59 58 55 56 55 47 41 48 52 63 61 61 60 64 63 60 59 63 64 69 73 69 62 55 46 44 42 39 40 42 43 42 42 42 42 44 45 41
62 63 64 64 66 62 61 62 58 59 58 47 37 55 59 53 55 54 59 62 61 60 62 66 73 74 74 67 59 52 49 45 42 42 45 47 50 51 49 47 48 49 46
Wind_Direction_500mb
220 220 223 226 227 229 230 232 235 239 242 245 249 252 255 256 255 256 257 265 278 291 303 312 318 321 323 317 315 309 304 300 296 310 315 323 330 336 334 329 335 338 335
221 222 224 226 227 229 231 232 235 238 242 245 246 249 252 253 253 253 255 263 274 288 302 312 319 320 321 315 311 307 299 304 303 301 318 328 333 336 337 333 330 337 340
222 223 225 226 228 231 233 234 236 238 240 242 243 247 251 251 250 251 252 259 273 288 302 312 319 319 320 316 309 305 301 305 308 301 312 323 330 338 335 335 335 334 335
225 223 224 227 230 234 237 237 237 238 241 242 244 247 248 248 248 248 249 257 269 286 301 313 319 319 319 318 312 304 303 308 310 308 311 313 322 335 332 335 332 335 333
240 232 231 233 235 237 239 237 237 239 241 242 242 243 244 244 246 246 248 255 266 283 299 312 319 320 322 322 312 307 305 304 307 306 307 312 325 332 333 336 336 336 339
272 256 248 245 244 244 243 240 238 240 240 239 239 241 242 243 244 243 245 252 263 279 295 309 317 320 322 323 316 301 297 301 302 306 308 311 322 328 331 335 334 337 339
262 261 263 258 251 247 248 245 242 241 238 237 238 239 241 240 240 240 242 249 259 272 290 305 318 322 323 328 323 307 295 298 299 297 304 316 321 328 328 331 330 328 327
268 262 263 260 254 249 246 247 245 242 238 236 237 238 237 236 237 236 239 246 256 269 286 303 319 322 324 332 331 320 306 302 297 304 313 319 321 324 325 328 325 322 330
294 277 265 266 263 253 248 248 247 242 236 235 236 235 234 232 234 233 235 244 253 265 283 302 318 322 327 333 332 326 314 296 292 304 310 316 322 328 327 329 327 340 348
313 298 279 261 256 256 252 248 247 242 238 236 234 233 232 231 231 231 234 241 249 261 277 299 314 321 327 333 332 328 323 310 307 306 310 321 332 336 335 336 341 343 337
322 307 293 278 265 259 254 250 247 242 236 234 233 231 229 228 228 229 232 239 247 256 271 292 309 317 325 330 335 332 328 320 318 316 325 333 334 339 343 349 352 351 359
334 322 307 290 272 265 256 248 242 237 233 232 229 227 227 227 227 230 233 239 244 252 265 282 300 314 321 329 335 336 332 328 320 320 329 334 337 353 1 359 357 357 356
340 336 323 310 287 270 263 250 239 232 229 229 227 225 226 228 229 230 235 237 243 248 258 274 291 307 316 325 333 338 341 340 326 329 334 343 351 5 7 354 359 3 11
337 337 337 324 309 287 271 254 241 234 228 226 226 225 227 230 230 231 233 236 238 243 251 264 280 296 310 319 331 338 346 357 333 329 349 357 4 6 356 350 344 352 40
329 330 334 333 320 301 279 265 247 238 236 236 229 228 230 231 233 236 236 236 237 242 247 256 269 286 302 308 325 334 347 4 336 337 2 4 12 10 12 20 33 59 83
322 323 326 327 330 310 291 274 258 242 235 233 233 236 241 241 235 234 233 231 230 233 242 249 259 274 288 296 311 327 329 4 349 337 16 24 16 29 32 49 67 81 94
314 314 317 314 314 322 299 286 273 250 242 236 236 232 233 234 233 230 228 227 228 232 236 243 250 260 274 284 293 307 293 298 20 333 47 70 29 45 63 84 96 95 102
311 308 305 302 301 298 303 287 275 265 242 242 243 241 238 235 234 232 226 227 227 231 235 238 239 248 259 270 276 281 273 244 202 187 200 159 111 67 76 90 112 116 109
309 308 302 297 296 294 286 289 281 271 263 254 241 239 242 243 242 238 230 235 235 238 238 236 234 238 247 256 260 261 258 248 225 198 184 182 164 136 112 125 129 132 126
303 303 297 297 292 289 286 284 286 278 272 261 253 250 246 239 239 236 233 237 235 239 240 235 229 231 236 244 250 249 244 235 231 215 188 179 182 167 153 162 169 164 150
291 295 297 295 294 287 286 284 283 279 271 265 259 253 249 247 246 244 242 239 243 242 241 236 229 227 229 233 240 241 239 229 219 217 200 179 179 178 166 170 181 174 167
283 286 288 290 289 286 275 271 270 272 270 265 266 259 247 248 248 245 245 247 250 250 244 239 233 229 229 229 231 234 237 227 218 214 204 190 183 181 176 172 172 172 169
276 278 281 282 283 282 281 273 270 273 272 265 263 267 257 247 244 244 242 248 248 245 244 237 230 227 227 224 224 226 230 230 221 212 208 196 190 186 181 174 170 168 165
268 271 273 275 277 278 275 275 268 266 268 267 261 261 263 253 242 244 244 243 249 247 241 234 226 224 224 221 220 220 219 215 210 207 202 197 190 187 182 176 172 168 167
262 263 267 269 272 273 274 270 267 261 259 267 270 264 260 255 250 242 246 244 250 246 240 232 225 218 219 219 219 218 218 217 213 206 199 193 190 188 185 180 178 175 176
263 262 263 265 268 270 272 273 268 265 259 256 258 266 263 255 251 245 245 243 245 242 238 231 224 215 212 212 213 216 216 214 210 205 200 195 190 187 186 185 183 181 179
Wind_Speed_850mb
73 77 78 75 71 70 70 72 70 65 64 59 53 48 43 41 39 38 35 34 33 34 37 42 46 49 50 50 48 43 41 40 57 79 77 82 81 83 77 67 62 69 82
64 66 70 68 68 69 72 73 71 71 66 62 58 53 47 44 42 39 36 35 34 34 37 42 46 49 50 49 46 42 40 40 52 75 85 86 86 85 78 76 73 68 80
54 59 62 64 67 71 71 72 73 73 69 66 63 57 51 46 44 41 39 36 34 34 37 41 46 50 51 48 45 44 41 44 51 67 87 85 86 84 84 79 83 82 78
47 53 58 62 64 66 68 71 74 73 71 69 65 58 53 49 46 43 40 36 34 33 37 40 44 50 53 49 44 43 44 46 55 64 74 80 81 81 79 84 93 78 78
44 51 56 58 60 61 64 69 71 74 73 69 65 61 56 54 49 45 41 37 34 32 35 39 43 48 53 53 44 42 45 47 52 62 68 72 80 81 81 82 80 78 68
49 56 59 61 62 63 65 67 70 74 74 71 69 65 60 56 49 46 42 39 33 32 34 38 42 44 48 50 43 38 43 42 48 55 65 72 73 74 77 75 71 70 63
39 47 61 72 74 73 71 68 69 76 76 74 73 68 62 56 52 48 43 40 35 33 34 38 41 44 47 47 43 37 37 34 32 48 59 64 69 70 71 71 62 56 56
47 48 53 65 83 87 80 73 71 76 78 77 76 69 63 57 53 49 46 42 38 33 34 37 39 43 47 49 47 39 37 32 33 43 51 59 62 62 60 56 53 49 43
41 47 50 51 65 85 90 81 79 80 81 80 77 68 66 59 55 52 48 45 38 33 34 36 38 41 44 47 45 43 38 32 30 39 47 54 54 52 52 47 38 38 37
46 47 48 56 59 70 83 90 87 84 82 79 75 70 66 58 55 53 50 46 41 33 34 32 37 40 42 44 43 43 44 38 32 30 37 42 42 44 42 40 37 35 33
50 49 49 52 58 65 67 82 86 85 82 80 75 70 66 60 58 56 51 47 39 36 32 30 34 38 38 41 40 39 40 42 28 36 39 38 37 35 33 35 35 30 26
54 50 44 45 43 46 55 68 80 82 80 80 75 72 68 62 59 56 52 46 42 38 32 31 32 34 36 37 37 37 34 33 29 31 29 29 30 28 31 38 37 32 25
53 53 46 39 37 33 44 58 70 76 81 80 76 76 69 64 59 56 53 48 46 39 34 32 31 32 32 31 33 33 31 28 25 20 22 24 27 30 33 34 34 30 20
55 51 47 43 33 30 35 46 58 71 78 78 76 73 67 63 59 56 55 53 49 43 37 34 32 31 30 27 29 27 25 25 22 16 20 21 24 30 30 29 24 18 15
54 49 45 39 35 28 29 41 53 61 68 70 72 68 66 62 55 52 53 51 46 42 41 38 33 30 28 26 23 24 19 17 17 13 14 17 21 28 28 28 26 22 30
54 55 45 40 35 30 26 32 45 53 59 65 66 60 54 49 47 48 47 47 47 50 48 42 35 32 28 25 20 18 14 9 10 9 7 12 16 20 21 20 23 32 41
54 50 53 45 36 34 30 28 40 46 51 61 65 61 57 52 48 46 49 52 53 54 54 47 40 34 30 26 20 14 12 4 3 5 2 6 7 12 14 14 21 27 36
52 50 47 48 43 39 35 35 36 44 47 56 59 58 59 57 54 50 49 52 60 62 58 53 44 36 32 27 22 16 13 11 5 3 3 4 7 8 12 10 19 27 32
51 50 55 52 44 41 42 39 43 44 42 50 53 53 52 48 53 57 53 67 70 66 60 54 46 41 35 30 25 19 13 17 14 12 10 9 11 12 10 9 14 18 21
54 49 53 57 51 41 45 42 45 48 44 47 49 52 45 42 54 59 65 75 76 76 66 55 49 45 41 35 29 24 19 18 20 18 16 14 18 19 15 10 13 16 20
58 57 53 55 56 46 46 47 42 52 49 54 53 47 46 56 60 66 68 74 77 80 71 64 58 54 48 40 36 29 24 23 23 26 22 21 21 21 20 18 19 22 21
63 60 57 55 56 49 48 48 53 51 52 53 54 60 57 56 60 66 70 72 69 74 72 67 62 58 53 45 38 31 30 28 27 30 31 28 28 25 20 19 27 29 27
67 65 62 58 58 52 52 52 52 57 57 54 52 58 61 59 63 69 68 64 68 68 65 66 66 64 60 52 45 37 34 29 26 30 33 34 33 30 26 26 32 35 34
66 66 64 64 61 55 50 50 47 51 52 54 52 54 61 61 62 66 68 63 66 59 61 59 67 69 66 59 52 42 37 37 36 35 36 36 37 37 36 36 36 38 38
64 65 65 65 63 59 58 55 56 55 47 41 48 52 63 61 61 60 64 63 60 59 63 64 69 73 69 62 55 46 44 42 39 40 42 43 42 42 42 42 44 45 41
62 63 64 64 66 62 61 62 58 59 58 47 37 55 59 53 55 54 59 62 61 60 62 66 73 74 74 67 59 52 49 45 42 42 45 47 50 51 49 47 48 49 46
Wind_Direction_850mb
220 220 223 226 227 229 230 232 235 239 242 245 249 252 255 256 255 256 257 265 278 291 303 312 318 321 323 317 315 309 304 300 296 310 315 323 330 336 334 329 335 338 335
221 222 224 226 227 229 231 232 235 238 242 245 246 249 252 253 253 253 255 263 274 288 302 312 319 320 321 315 311 307 299 304 303 301 318 328 333 336 337 333 330 337 340
222 223 225 226 228 231 233 234 236 238 240 242 243 247 251 251 250 251 252 259 273 288 302 312 319 319 320 316 309 305 301 305 308 301 312 323 330 338 335 335 335 334 335
225 223 224 227 230 234 237 237 237 238 241 242 244 247 248 248 248 248 249 257 269 286 301 313 319 319 319 318 312 304 303 308 310 308 311 313 322 335 332 335 332 335 333
240 232 231 233 235 237 239 237 237 239 241 242 242 243 244 244 246 246 248 255 266 283 299 312 319 320 322 322 312 307 305 304 307 306 307 312 325 332 333 336 336 336 339
272 256 248 245 244 244 243 240 238 240 240 239 239 241 242 243 244 243 245 252 263 279 295 309 317 320 322 323 316 301 297 301 302 306 308 311 322 328 331 335 334 337 339
262 261 263 258 251 247 248 245 242 241 238 237 238 239 241 240 240 240 242 249 259 272 290 305 318 322 323 328 323 307 295 298 299 297 304 316 321 328 328 331 330 328 327
268 262 263 260 254 249 246 247 245 242 238 236 237 238 237 236 237 236 239 246 256 269 286 303 319 322 324 332 331 320 306 302 297 304 313 319 321 324 325 328 325 322 330
294 277 265 266 263 253 248 248 247 242 236 235 236 235 234 232 234 233 235 244 253 265 283 302 318 322 327 333 332 326 314 296 292 304 310 316 322 328 327 329 327 340 348
313 298 279 261 256 256 252 248 247 242 238 236 234 233 232 231 231 231 234 241 249 261 277 299 314 321 327 333 332 328 323 310 307 306 310 321 332 336 335 336 341 343 337
322 307 293 278 265 259 254 250 247 242 236 234 233 231 229 228 228 229 232 239 247 256 271 292 309 317 325 330 335 332 328 320 318 316 325 333 334 339 343 349 352 351 359
334 322 307 290 272 265 256 248 242 237 233 232 229 227 227 227 227 230 233 239 244 252 265 282 300 314 321 329 335 336 332 328 320 320 329 334 337 353 1 359 357 357 356
340 336 323 310 287 270 263 250 239 232 229 229 227 225 226 228 229 230 235 237 243 248 258 274 291 307 316 325 333 338 341 340 326 329 334 343 351 5 7 354 359 3 11
337 337 337 324 309 287 271 254 241 234 228 226 226 225 227 230 230 231 233 236 238 243 251 264 280 296 310 319 331 338 346 357 333 329 349 357 4 6 356 350 344 352 40
329 330 334 333 320 301 279 265 247 238 236 236 229 228 230 231 233 236 236 236 237 242 247 256 269 286 302 308 325 334 347 4 336 337 2 4 12 10 12 20 33 59 83
322 323 326 327 330 310 291 274 258 242 235 233 233 236 241 241 235 234 233 231 230 233 242 249 259 274 288 296 311 327 329 4 349 337 16 24 16 29 32 49 67 81 94
314 314 317 314 314 322 299 286 273 250 242 236 236 232 233 234 233 230 228 227 228 232 236 243 250 260 274 284 293 307 293 298 20 333 47 70 29 45 63 84 96 95 102
311 308 305 302 301 298 303 287 275 265 242 242 243 241 238 235 234 232 226 227 227 231 235 238 239 248 259 270 276 281 273 244 202 187 200 159 111 67 76 90 112 116 109
309 308 302 297 296 294 286 289 281 271 263 254 241 239 242 243 242 238 230 235 235 238 238 236 234 238 247 256 260 261 258 248 225 198 184 182 164 136 112 125 129 132 126
303 303 297 297 292 289 286 284 286 278 272 261 253 250 246 239 239 236 233 237 235 239 240 235 229 231 236 244 250 249 244 235 231 215 188 179 182 167 153 162 169 164 150
291 295 297 295 294 287 286 284 283 279 271 265 259 253 249 247 246 244 242 239 243 242 241 236 229 227 229 233 240 241 239 229 219 217 200 179 179 178 166 170 181 174 167
283 286 288 290 289 286 275 271 270 272 270 265 266 259 247 248 248 245 245 247 250 250 244 239 233 229 229 229 231 234 237 227 218 214 204 190 183 181 176 172 172 172 169
276 278 281 282 283 282 281 273 270 273 272 265 263 267 257 247 244 244 242 248 248 245 244 237 230 227 227 224 224 226 230 230 221 212 208 196 190 186 181 174 170 168 165
268 271 273 275 277 278 275 275 268 266 268 267 261 261 263 253 242 244 244 243 249 247 241 234 226 224 224 221 220 220 219 215 210 207 202 197 190 187 182 176 172 168 167
262 263 267 269 272 273 274 270 267 261 259 267 270 264 260 255 250 242 246 244 250 246 240 232 225 218 219 219 219 218 218 217 213 206 199 193 190 188 185 180 178 175 176
263 262 263 265 268 270 272 273 268 265 259 256 258 266 263 255 251 245 245 243 245 242 238 231 224 215 212 212 213 216 216 214 210 205 200 195 190 187 186 185 183 181 179